Total_Precipitation_Accumulation
2.50 2.45 2.98 4.00 4.61 4.11 3.64 2.89 2.45 2.29 1.91 1.49 1.15 1.14 1.43 1.87 2.34 2.77 3.08 2.91 2.01 1.57 1.65 2.44 3.10 2.81 2.32 2.01 1.87 1.88 1.82 1.90 1.82 1.79 1.62 1.50 1.38 1.26 1.11 1.01 1.05 1.03 0.94 0.88 0.85 0.93 0.95 0.97 1.15
1.85 2.75 3.61 4.57 4.20 3.54 3.33 2.88 2.63 2.16 1.55 1.23 0.89 0.83 0.95 1.02 1.08 1.70 2.91 2.82 1.78 1.44 1.53 1.87 2.59 2.48 2.06 1.87 1.86 1.94 1.95 2.04 1.94 1.77 1.55 1.45 1.44 1.37 1.22 1.13 1.23 1.07 0.95 0.91 0.91 0.96 1.06 1.03 1.15
2.00 3.16 4.20 4.46 3.31 3.02 3.12 2.90 2.40 1.77 1.26 1.15 0.94 0.83 1.03 1.30 1.37 1.96 2.68 2.09 1.53 1.42 1.51 2.03 2.58 2.31 2.01 1.84 1.99 2.15 2.13 2.09 1.89 1.65 1.43 1.44 1.47 1.44 1.38 1.36 1.31 1.08 0.99 0.94 0.91 0.97 1.00 1.01 1.05
2.36 3.53 3.86 3.56 2.90 2.49 2.54 2.53 2.00 1.60 1.22 0.88 0.88 0.90 0.96 1.36 1.41 1.71 1.77 1.49 1.32 1.44 1.54 1.92 2.41 2.25 2.02 1.84 2.04 2.15 2.17 2.14 2.02 1.74 1.48 1.45 1.44 1.41 1.38 1.40 1.26 1.12 1.02 0.94 0.91 0.95 0.99 0.99 1.00
2.82 3.73 3.66 3.13 2.75 2.43 2.12 1.79 1.58 1.48 1.24 0.96 0.82 1.04 1.40 1.77 1.56 1.46 1.43 1.35 1.21 1.32 1.35 1.58 2.14 2.19 2.02 1.93 2.15 2.21 2.23 2.28 2.22 1.89 1.67 1.56 1.46 1.42 1.42 1.44 1.30 1.23 1.14 1.07 1.04 1.06 1.06 1.02 1.07
3.17 3.28 3.49 3.06 2.70 2.46 2.35 1.72 1.51 1.44 1.14 0.94 0.87 1.10 1.78 2.11 1.79 1.56 1.40 1.49 1.43 1.40 1.32 1.30 1.89 2.11 2.09 2.12 2.18 2.18 2.19 2.20 2.22 1.97 1.78 1.61 1.48 1.41 1.51 1.54 1.37 1.28 1.16 1.10 1.12 1.16 1.20 1.16 1.14
3.09 3.18 3.19 2.62 2.62 2.81 2.44 1.72 1.56 1.41 1.31 1.06 0.79 1.19 1.87 2.23 1.86 1.55 1.47 1.51 1.62 1.56 1.49 1.36 1.48 1.78 2.09 2.13 2.01 2.01 1.97 1.99 2.09 1.88 1.75 1.57 1.45 1.35 1.40 1.46 1.35 1.31 1.28 1.25 1.23 1.32 1.31 1.19 1.17
2.26 2.58 2.63 2.55 2.66 2.87 2.13 1.60 1.27 1.21 1.17 0.89 0.74 1.18 1.72 1.72 1.57 1.53 1.65 1.81 1.96 1.75 1.61 1.42 1.35 1.42 1.51 1.72 1.86 1.98 2.00 1.98 2.04 1.83 1.64 1.50 1.41 1.27 1.30 1.26 1.26 1.35 1.40 1.46 1.45 1.46 1.40 1.34 1.23
2.05 2.71 2.99 2.95 2.65 2.26 1.49 1.35 1.14 0.92 1.00 0.89 0.71 0.77 0.98 1.05 1.20 1.43 1.53 1.67 1.79 1.53 1.45 1.48 1.48 1.49 1.53 1.49 1.54 1.81 1.92 1.94 1.82 1.75 1.63 1.45 1.19 1.04 1.12 1.10 1.33 1.46 1.56 1.62 1.63 1.59 1.56 1.41 1.21
2.14 2.86 2.84 2.24 1.96 1.65 1.18 1.14 1.04 1.05 1.10 1.03 0.81 0.77 0.88 0.96 1.18 1.36 1.31 1.37 1.33 1.24 1.21 1.28 1.32 1.45 1.50 1.35 1.55 1.83 1.68 1.59 1.34 1.37 1.24 1.23 1.15 1.07 0.90 1.04 1.39 1.52 1.54 1.54 1.60 1.66 1.48 1.20 0.90
1.72 2.22 1.99 1.76 1.53 1.26 1.08 1.12 1.01 1.04 1.18 1.07 0.86 0.87 1.08 1.16 1.17 1.14 1.10 1.14 1.07 1.04 1.03 0.99 1.04 1.11 1.24 1.40 1.64 1.92 1.98 1.79 1.56 1.32 1.23 1.24 1.14 1.01 0.92 0.93 1.08 1.20 1.23 1.10 1.12 1.14 1.01 0.93 0.84
1.47 1.45 1.45 1.64 1.39 1.29 1.07 1.04 1.07 1.04 1.09 0.95 0.78 0.79 0.97 1.15 1.23 1.10 0.93 0.88 0.81 0.86 0.97 0.80 0.71 0.86 1.03 1.15 1.28 1.56 1.63 1.56 1.43 1.22 1.13 1.23 1.21 1.08 1.05 1.04 1.08 1.11 1.08 1.10 1.07 1.10 1.07 0.90 0.80
1.73 1.50 1.29 1.28 1.28 1.35 1.14 1.06 1.04 1.03 0.94 0.83 0.78 0.89 0.98 1.01 1.04 0.98 0.83 0.73 0.74 0.83 0.91 0.83 0.72 0.70 0.78 0.84 0.95 1.10 1.26 1.34 1.35 1.30 1.11 1.13 1.20 1.15 1.15 1.11 1.16 1.04 0.97 1.01 1.07 1.09 1.11 1.01 0.87
1.54 1.37 1.36 1.34 1.27 1.28 1.30 1.06 1.03 1.24 0.95 0.84 0.90 0.98 0.95 0.91 0.90 0.97 0.87 0.78 0.71 0.73 0.86 0.85 0.76 0.75 0.77 0.73 0.73 0.74 0.90 1.07 1.19 1.23 1.13 1.14 1.20 1.18 1.26 1.21 1.15 1.08 0.98 1.00 1.18 1.14 1.16 1.14 1.07
1.43 1.59 1.53 1.44 1.34 1.32 1.27 1.38 1.28 1.20 0.98 0.93 0.99 0.95 0.91 0.87 0.85 0.93 0.86 0.76 0.69 0.69 0.76 0.82 0.81 0.85 0.87 0.82 0.80 0.66 0.71 0.82 0.98 1.12 1.11 1.18 1.14 1.07 1.15 1.17 1.11 1.09 1.09 1.09 1.15 1.18 1.23 1.14 1.07
1.73 1.91 2.01 1.69 1.45 1.25 1.29 1.69 1.56 1.28 1.05 1.07 1.03 0.93 0.89 0.85 0.80 0.83 0.81 0.79 0.75 0.76 0.82 0.87 0.87 0.90 0.93 0.95 0.94 0.86 0.89 0.97 1.02 1.16 1.14 1.12 1.18 1.15 1.14 1.18 1.17 1.19 1.23 1.21 1.24 1.30 1.29 1.23 1.22
1.92 1.93 1.79 1.64 1.33 1.11 1.15 1.42 1.44 1.31 1.07 0.95 0.93 0.86 0.77 0.68 0.63 0.62 0.61 0.62 0.68 0.70 0.75 0.80 0.88 0.90 0.92 0.96 1.05 1.17 1.22 1.21 1.21 1.26 1.20 1.12 1.15 1.22 1.34 1.37 1.39 1.36 1.37 1.36 1.32 1.34 1.25 1.25 1.26
1.85 1.55 1.34 1.29 1.19 1.05 0.96 1.06 1.12 1.14 1.00 0.81 0.72 0.68 0.67 0.58 0.52 0.47 0.44 0.46 0.54 0.60 0.65 0.72 0.80 0.96 1.08 1.13 1.15 1.31 1.37 1.43 1.50 1.53 1.38 1.26 1.32 1.46 1.66 1.74 1.63 1.60 1.60 1.58 1.53 1.58 1.45 1.33 1.36
1.35 1.32 1.20 1.00 0.96 1.00 0.90 0.88 0.93 0.92 0.89 0.77 0.64 0.52 0.50 0.49 0.46 0.44 0.40 0.41 0.46 0.50 0.54 0.62 0.70 0.88 0.98 1.03 1.16 1.36 1.52 1.69 1.84 1.91 1.79 1.63 1.62 1.79 1.94 1.86 1.93 1.94 1.82 1.83 1.88 1.92 1.88 1.67 1.53
1.19 1.22 1.07 0.91 0.77 0.78 0.79 0.81 0.82 0.77 0.75 0.65 0.53 0.46 0.38 0.32 0.32 0.31 0.28 0.30 0.32 0.33 0.38 0.46 0.55 0.62 0.76 0.93 1.19 1.39 1.69 1.76 1.83 1.95 2.00 1.91 1.85 2.02 2.07 2.15 2.22 2.24 2.24 2.17 2.07 2.19 2.34 2.06 1.80
0.98 1.04 0.95 0.88 0.76 0.69 0.68 0.84 0.80 0.72 0.67 0.59 0.46 0.38 0.30 0.24 0.21 0.17 0.18 0.22 0.28 0.27 0.29 0.37 0.48 0.60 0.83 1.06 1.39 1.68 1.96 2.05 2.09 2.02 2.07 2.12 2.16 2.23 2.28 2.34 2.39 2.39 2.23 2.22 2.32 2.46 2.80 2.60 2.22
0.96 0.70 0.64 0.65 0.81 0.83 0.69 1.00 0.73 0.60 0.58 0.52 0.44 0.41 0.33 0.25 0.19 0.16 0.17 0.19 0.21 0.25 0.31 0.43 0.62 0.81 1.07 1.39 1.78 2.06 2.31 2.43 2.27 2.22 2.21 2.19 2.14 2.19 2.30 2.32 2.31 2.28 2.21 2.26 2.32 2.37 2.79 2.99 2.69
0.65 0.55 0.63 0.66 0.72 0.66 0.50 0.69 0.64 0.50 0.54 0.46 0.39 0.39 0.38 0.31 0.24 0.22 0.23 0.25 0.31 0.39 0.48 0.65 0.91 1.21 1.47 1.71 1.91 2.15 2.30 2.31 2.26 2.21 2.20 2.11 2.06 2.05 2.07 2.09 2.19 2.22 2.25 2.30 2.46 2.58 2.85 2.87 2.85
0.48 0.57 0.70 0.72 0.77 0.82 0.43 0.53 0.65 0.50 0.45 0.41 0.37 0.35 0.31 0.29 0.29 0.30 0.32 0.40 0.48 0.57 0.73 0.91 1.09 1.39 1.58 1.70 1.81 1.97 2.13 2.18 2.18 2.17 2.19 2.18 2.14 2.04 1.96 1.91 1.99 2.13 2.27 2.32 2.41 2.58 2.82 2.91 2.97
0.47 0.80 1.14 1.17 1.12 0.84 0.40 0.57 0.67 0.49 0.38 0.33 0.34 0.33 0.30 0.35 0.39 0.41 0.51 0.66 0.73 0.78 0.90 1.06 1.14 1.34 1.44 1.50 1.60 1.73 1.80 1.84 1.87 1.87 1.87 1.80 1.76 1.76 1.82 1.87 1.95 2.08 2.17 2.25 2.37 2.51 2.56 2.67 2.90
0.43 0.67 1.13 1.24 1.08 0.77 0.53 0.80 0.71 0.46 0.37 0.35 0.35 0.32 0.36 0.48 0.58 0.68 0.82 0.91 0.98 1.01 0.99 1.04 1.18 1.21 1.21 1.26 1.26 1.37 1.46 1.52 1.56 1.53 1.53 1.58 1.62 1.64 1.61 1.66 1.73 1.95 2.13 2.20 2.30 2.32 2.30 2.35 2.52
0.44 0.47 0.54 0.79 0.75 0.79 0.73 0.89 0.80 0.47 0.40 0.37 0.37 0.37 0.44 0.62 0.83 1.05 1.23 1.32 1.40 1.34 1.18 1.06 1.06 1.03 1.01 1.12 1.19 1.22 1.28 1.33 1.34 1.34 1.27 1.38 1.42 1.42 1.38 1.43 1.47 1.59 1.81 2.04 2.19 2.15 2.07 2.04 2.19
0.36 0.47 0.61 0.92 1.10 1.06 0.94 1.05 1.01 0.68 0.55 0.46 0.47 0.57 0.72 0.94 1.25 1.52 1.75 1.86 1.85 1.67 1.44 1.21 1.03 0.94 0.91 0.98 1.08 1.17 1.18 1.18 1.14 1.16 1.08 1.13 1.24 1.23 1.20 1.22 1.30 1.46 1.58 1.77 1.98 2.06 2.00 2.00 2.07
0.38 0.55 0.70 0.90 0.94 1.20 1.36 1.32 1.02 0.91 0.80 0.76 0.82 0.99 1.20 1.47 1.68 1.85 2.01 2.06 1.82 1.65 1.40 1.15 0.99 0.99 1.00 1.04 1.08 1.12 1.08 1.05 1.02 0.98 0.93 0.97 1.06 1.07 1.07 1.22 1.28 1.35 1.45 1.65 1.90 2.08 2.08 2.01 2.01
0.48 0.70 0.92 1.29 1.18 1.10 1.34 1.37 0.96 0.89 0.93 0.97 1.08 1.14 1.26 1.42 1.44 1.54 1.63 1.59 1.56 1.53 1.35 1.17 1.07 1.07 1.10 1.13 1.18 1.13 1.05 1.00 0.98 0.95 0.86 0.84 0.80 0.80 0.93 1.06 1.10 1.15 1.20 1.39 1.67 1.87 1.93 1.92 1.83